Regional Weather Roundup
Issued by NWS

Home | Current Version | Previous Version | Text Only | Print | Product List | Glossary Off
Versions: 1 2 3 4 5 6 7 8 9 10 11 12 13 14 15 16 17 18 19 20 21 22 23 24 25 26 27 28 29 30 31 32 33 34 35 36 37 38 39 40 41 42 43 44 45 46 47 48 49 50

000
ASUS43 KFSD 051802
RWRSD

WEATHER ROUNDUP FOR SOUTH DAKOTA
NATIONAL WEATHER SERVICE SIOUX FALLS SD
1200 PM CST FRI FEB 05 2016

NOTE: "FAIR" INDICATES FEW OR NO CLOUDS BELOW 12,000 FEET WITH NO
SIGNIFICANT WEATHER AND/OR OBSTRUCTIONS TO VISIBILITY.


SDZ001>005-009-010-012>017-051900-
NORTHWEST AND NORTH CENTRAL SOUTH DAKOTA

CITY           SKY/WX    TMP DP  RH WIND       PRES   REMARKS
BUFFALO          N/A     35  24  64 W23       30.13S WCI  23
FAITH            N/A     33  22  63 NW17      30.20S WCI  22
MOBRIDGE       SUNNY     36  26  67 NW15      30.16R
$$

SDZ012>016-024>037-041>051-057-063-072>074-051900-
SOUTHWEST AND SOUTH CENTRAL SOUTH DAKOTA

CITY           SKY/WX    TMP DP  RH WIND       PRES   REMARKS
RAPID CTY ARPT SUNNY     36  24  62 NW23      30.22S
PIERRE         LGT RAIN  35  31  85 NW22      30.18R WCI  23
CUSTER         SUNNY     31  10  41 NW9G26    30.15F WCI  23
ELLSWORTH AFB  SUNNY     35  25  66 NW22G30   30.19F WCI  23
PHILIP         CLOUDY    35  26  69 NW22      30.23R WCI  23
PINE RIDGE     CLOUDY    33  25  72 N7        30.25S WCI  27
WINNER         CLOUDY    36  28  73 NW16G24   30.18S
$$

SDZ004>011-016>023-039-040-051900-
NORTHEAST SOUTH DAKOTA

CITY           SKY/WX    TMP DP  RH WIND       PRES   REMARKS
ABERDEEN       LGT SNOW  30  25  81 W3        30.17S
WATERTOWN      CLOUDY    25  17  72 SW10      30.13S WCI  15
SISSETON         N/A     29  25  85 NW7       30.15S WCI  22
$$

SDZ017-020-022-023-036>040-048>070-051900-
SOUTHEAST SOUTH DAKOTA

CITY           SKY/WX    TMP DP  RH WIND       PRES   REMARKS
SIOUX FALLS    CLOUDY    26  21  81 S18       30.19F WCI  13
HURON          CLOUDY    27  22  81 SW6       30.16F WCI  20
MITCHELL       CLOUDY    30  24  78 SW3       30.18S
YANKTON        CLOUDY    30  23  74 S14       30.20F WCI  20
$$

ABBREVIATIONS USED IN REMARKS
   TC - TEMPERATURE IN CELSIUS
  WCI - WIND CHILL INDEX
   HX - HEAT INDEX
  VSB - VISIBILITY




USA.gov is the U.S. government's official web portal to all federal, state and local government web resources and services.